Regional Weather Roundup
Issued by NWS

Home | Current Version | Previous Version | Text Only | Print | Product List | Glossary On
Versions: 1 2 3 4 5 6 7 8 9 10 11 12 13 14 15 16 17 18 19 20 21 22 23 24 25 26 27 28 29 30 31 32 33 34 35 36 37 38 39 40 41 42 43 44 45 46 47 48 49 50
000
ASUS43 KLSX 281407
RWRMO

WEATHER SUMMARY FOR MISSOURI
NATIONAL WEATHER SERVICE SPRINGFIELD MO
900 AM CDT SAT MAR 28 2015

NOTE: "FAIR" INDICATES FEW OR NO CLOUDS BELOW 12,000 FEET WITH NO
       SIGNIFICANT WEATHER AND/OR OBSTRUCTIONS TO VISIBILITY.
       CURRENT SKY AND/OR WEATHER CONDITIONS ARE NOT AVAILABLE FOR
       CHILLICOTHE AND FARMINGTON.

MOZ001>031-035>038-043-044-053-054-281500-
...NORTHERN AND WESTERN MISSOURI...

CITY           SKY/WX    TMP DP  RH WIND       PRES   REMARKS
KANSAS CTY INT CLOUDY    37  30  75 E16       30.16S WCI  28
KANSAS C DTWN  CLOUDY    39  29  67 E13       30.17R
LEE`S SUMMIT   CLOUDY    37  29  72 E14       30.18R WCI  28
ST JOSEPH      CLOUDY    37  29  72 SE13      30.18R WCI  29
CHILLICOTHE      N/A     35  29  78 SE9       30.23S WCI  28
KIRKSVILLE     CLOUDY    33  19  56 SE14      30.25R WCI  23

$$
MOZ066>068-077>081-088>096-101>105-281500-
...SOUTHWEST MISSOURI...

CITY           SKY/WX    TMP DP  RH WIND       PRES   REMARKS
SPRINGFIELD    CLOUDY    39  24  55 E13       30.16R
JOPLIN         CLOUDY    45  29  53 SE8       30.12S

$$
MOZ032>034-039>042-045>050-055>058-069>072-281500-
...CENTRAL MISSOURI...

CITY           SKY/WX    TMP DP  RH WIND       PRES   REMARKS
COLUMBIA       FLURRIES  32  23  69 SE6       30.25R WCI  26
JEFFERSON CITY FLURRIES  34  26  72 E6        30.27R WCI  29
ROLLA          CLOUDY    32  24  72 SE6       30.23R WCI  26
SEDALIA        CLOUDY    37  30  75 SE12      30.23R WCI  29
WHITEMAN AFB   CLOUDY    36  30  78 SE10      30.20R WCI  28
WARRENSBURG    CLOUDY    36  30  80 E10       30.21R WCI  28
OSAGE BEACH    CLOUDY    34  28  80 SE6       30.24R WCI  29

$$
MOZ051-052-059>065-281500-
...EAST CENTRAL MISSOURI...

CITY           SKY/WX    TMP DP  RH WIND       PRES   REMARKS
ST LOUIS INTL  PTSUNNY   33  20  58 SE8       30.31R WCI  26
SPIRIT OF STL  PTSUNNY   32  19  58 E7        30.30R WCI  26
ST CHARLES     MOSUNNY   31  23  72 E8        30.31R WCI  23

$$
MOZ072>076-082>087-097>100-106>115-281500-
...SOUTH CENTRAL AND SOUTHEAST MISSOURI...

CITY           SKY/WX    TMP DP  RH WIND       PRES   REMARKS
CAPE GIRARDEAU SUNNY     34  22  61 E5        30.31R WCI  30
FARMINGTON     MOSUNNY   30  19  64 SE5       30.30S WCI  25
POPLAR BLUFF   CLOUDY    35  25  66 E6        30.29R
WEST PLAINS    LGT SNOW  31  28  89 SE7       30.24S VSB 1   WCI  24

$$


USA.gov is the U.S. government's official web portal to all federal, state and local government web resources and services.